NOAA 16 DEB

Satellite information

Favourite Embed

Satellite Type and Status

DEBRISIN ORBIT

Key statistics

Satellite NOAA 16 DEB at a glance.

Uptime

9215

Days in orbit

Revolutions

≈ 14.2

Per day

Orbit

SSO

Sun Synchronous Orbit

Inclination

98.8

Latest

Satellite identification and parameters

Extended collection of information and parameters for NOAA 16 DEB.

Object identification

Identified? True

Debris? True

Object name: NOAA 16 DEB

International designator: 2000-055RU

Object number (NORAD): 42376

Object ID (CCSDS): 42376

Country: UNITED STATES OF AMERICA (US)

Current information (Y/N): Y

RCS size: SMALL

Orbital parameters

Period: 101.612 minutes

Inclination: 98.7719 deg

SMA: 7213.112 km

Apoapsis: 899.574 km

Periapsis: 770.38 km

RAAN: 284.9753 deg

Eccentricy: 0.00895548

Argument of periapsis: 335.5017 deg

Mean anomaly: 24.1915 deg

Mean motion: 14.171596 rev/day

Mean motion (dot): 0.00018553 rev/day2

B* drag term: 0.0088488823 1/REarth

Two-line elements (TLE)

Creation date: Dec. 6, 2025, 12:48 p.m.

Reference frame: TEME

Reference center: EARTH

Epoch: Dec. 6, 2025, 1:36 a.m. UTC

TLE line 0: 0 NOAA 16 DEB

TLE line 1: 1 42376U 00055RU 25340.06735841 .00018553 00000-0 88489-2 0 9991

TLE line 2: 2 42376 98.7719 284.9753 0089555 335.5017 24.1915 14.17159600501089

Live tracking on map

Real-time ground track for satellite NOAA 16 DEB.

In-orbit conjunctions

A list of the most updated potential collisions computed for object NOAA 16 DEB.

Target Orbit TCA Probability of collision Miss distance Type
SL-3 DEB LEO 2025-04-20 18:04:42 0.0001121084 337.0 (m) DEBRIS

Associated space launch

The NOAA K, L and M POES satellites begin the fifth generation of improved environmental monitoring in support of NOAA missions. The instrument payload has significant improvements and additions/deletions. The instrument changes have effected the spacecraft subsystems and data formats.

NOAA 16 DEB was lifted into orbit during the mission ‘Titan II SLV | NOAA 16’, on board a Titan II SLV space rocket.

The launch took place on Sept. 21, 2000, 10:22 a.m. from Space Launch Complex 4W.

For more information about the launch, click the button.

Launch to space Titan II SLV | NOAA 16
Titan II SLV | NOAA 16

Agency: N/A

Status: Launch Successful

Launch date: Sept. 21, 2000, 10:22 a.m. UTC

Rocket: Titan II SLV

Launch pad: Space Launch Complex 4W

Location: Vandenberg SFB, CA, USA

...

Latest news about this satellite

There are no fresh news available about this satellite. Check back as we update our databases every day.


Newsletter sign-up

Weekly statistics, charts and insights to help you stay on top of the space industry.